Home   Weather   Erding   Past weeks
Flag for Germany

Past Weather in Erding, Bavaria, Germany — Yesterday and Last 2 Weeks

Now
39 °F

Clear.


Feels Like: 39 °F
Forecast: 63 / 46 °F
Wind: 1 mph from North

Location: Munich / Franz Josef Strauss Airport

Current Time: Oct 17, 2019 at 2:55:41 am

Latest Report: Oct 17, 2019 at 1:50 am


Visibility: 10 mi

Pressure: 30.01 "Hg

Humidity: 93%

Dew Point: 37 °F

Location of ErdingLocation

Past Weather in Erding — Graph

°F

Erding Temperature Yesterday

Maximum temperature yesterday: 61 °F (at 1:50 pm)
Minimum temperature yesterday: 39 °F (at 11:50 pm)
Average temperature yesterday: 53 °F

High & Low Weather Summary for the Past Weeks

 TemperatureHumidityPressure
High73 °F (Oct 12, 2:50 pm)100% (Oct 4, 3:50 am)30.21 "Hg (Oct 4, 3:50 am)
Low34 °F (Oct 4, 4:50 am)41% (Oct 12, 1:20 pm)29.68 "Hg (Oct 2, 3:50 am)
Average51 °F82%29.98 "Hg
* Reported Oct 2 1:20 am — Oct 17 1:50 am, Erding. Weather by CustomWeather, © 2019

Note: Actual official high and low records may vary slightly from our data, if they occured in-between our weather recording intervals... More about our weather records

Advertising

Erding Weather History for the Previous 24 Hours

Scroll right to see more
 ConditionsComfort  
Time TempWeatherWind HumidityBarometerVisibility
1:50 am
Thu, Oct 17
39 °FClear.1 mph93%30.01 "Hg10 mi
1:20 am39 °FClear.1 mph100%30.01 "Hg10 mi
12:50 am39 °FClear.No wind100%30.01 "Hg10 mi
12:20 am41 °FClear.No wind100%30.01 "Hg10 mi
11:50 pm
Wed, Oct 16
39 °FClear.1 mph93%30.01 "Hg10 mi
11:20 pm43 °FClear.2 mph93%30.01 "Hg10 mi
10:50 pm45 °FClear.2 mph87%30.01 "Hg10 mi
10:20 pm45 °FClear.3 mph87%30.01 "Hg10 mi
9:50 pm48 °FClear.1 mph82%30.01 "Hg10 mi
9:20 pm48 °FClear.3 mph82%30.01 "Hg10 mi
8:50 pm50 °FClear.3 mph76%30.01 "Hg10 mi
8:20 pm50 °FClear.6 mph76%30.01 "Hg10 mi
7:50 pm52 °FClear.6 mph72%30.01 "Hg10 mi
7:20 pm52 °FClear.5 mph72%30.01 "Hg10 mi
6:50 pm55 °FClear.3 mph59%30.01 "Hg10 mi
6:20 pm59 °FSunny.2 mph51%30.01 "Hg10 mi
5:50 pm61 °FPassing clouds.3 mph48%30.01 "HgN/A
5:20 pm61 °FSunny.1 mph48%30.01 "Hg10 mi
4:50 pm61 °FPassing clouds.3 mph48%30.01 "HgN/A
4:20 pm61 °FSunny.7 mph48%30.01 "Hg10 mi
3:50 pm61 °FPassing clouds.9 mph48%30.01 "HgN/A
3:20 pm61 °FPassing clouds.8 mph48%30.01 "HgN/A
2:50 pm61 °FPassing clouds.13 mph45%30.04 "HgN/A
2:20 pm61 °FPassing clouds.14 mph45%30.04 "HgN/A
1:50 pm61 °FPassing clouds.15 mph45%30.04 "HgN/A
1:20 pm59 °FScattered clouds.13 mph51%30.04 "HgN/A
12:50 pm59 °FScattered clouds.15 mph51%30.04 "HgN/A
12:20 pm59 °FPassing clouds.16 mph55%30.04 "HgN/A
11:50 am57 °FPassing clouds.18 mph59%30.04 "HgN/A
11:20 am57 °FPassing clouds.17 mph59%30.04 "HgN/A
10:50 am55 °FPassing clouds.16 mph63%30.07 "HgN/A
10:20 am54 °FSunny.15 mph72%30.07 "Hg10 mi
9:50 am54 °FSunny.14 mph72%30.07 "Hg10 mi
9:20 am50 °FSunny.12 mph82%30.07 "Hg10 mi
8:50 am50 °FSunny.9 mph76%30.04 "Hg10 mi
8:20 am48 °FSunny.9 mph82%30.04 "Hg10 mi
7:50 am50 °FSunny.10 mph82%30.01 "Hg10 mi
7:20 am50 °FClear.14 mph82%30.01 "Hg10 mi
6:50 am50 °FClear.13 mph82%30.01 "Hg10 mi
6:20 am50 °FClear.14 mph88%30.01 "Hg10 mi
5:50 am50 °FClear.13 mph88%29.98 "Hg10 mi
4:50 am50 °FLight rain. Passing clouds.16 mph94%29.98 "HgN/A
4:20 am52 °FPassing clouds.20 mph82%29.98 "HgN/A
3:50 am52 °FPassing clouds.21 mph82%29.95 "HgN/A
3:20 am52 °FPartly cloudy.21 mph82%29.95 "HgN/A
2:50 am52 °FPassing clouds.18 mph88%29.95 "HgN/A
2:20 am52 °FLight rain. Clear.16 mph88%29.95 "HgN/A
Weather by CustomWeather, © 2019

See weather overview